Temperature
15 15 16 16 13 11 12 12 12 12 12 12 13 13 12 12 12 13 12 12 12 12 12 12 12 12 12 13 13 13 13 13 13 13 13 13 13 13 13 13 14 13 13 14 13 14 14 14 14
15 15 15 15 11 11 12 12 12 12 13 12 12 12 11 11 11 11 12 12 12 12 12 12 12 12 12 12 12 12 12 12 13 13 13 13 13 13 13 13 13 13 13 13 13 13 13 14 14
15 15 15 10 10 11 13 12 11 11 12 12 11 11 11 10 11 11 11 11 12 12 12 12 12 12 12 12 12 12 12 12 12 12 13 13 13 13 13 13 13 13 13 13 13 13 13 13 14
14 15 13 10 11 11 12 12 11 11 11 11 11 10 10 10 11 11 11 11 11 11 11 11 11 11 11 11 11 11 12 12 12 12 12 12 12 12 12 12 12 12 13 13 13 13 13 13 13
14 14 10 9 10 10 10 11 11 10 10 11 10 9 9 10 10 11 11 11 11 11 11 11 11 11 11 11 11 11 11 11 12 12 12 12 12 12 12 12 12 12 12 12 12 12 12 13 13
14 10 9 10 10 10 10 11 11 10 10 10 10 9 9 10 10 11 10 10 10 11 11 11 11 11 11 11 11 11 11 11 11 12 12 12 12 12 12 12 12 12 12 12 12 12 12 12 12
12 8 9 10 10 10 11 11 10 9 9 9 10 9 9 10 10 10 10 10 10 10 10 10 10 10 11 11 11 11 11 11 11 12 12 12 12 12 12 12 12 12 12 12 12 12 12 12 12
13 8 9 9 10 10 10 10 10 10 9 10 10 9 9 10 10 9 9 9 9 9 10 10 10 10 10 10 10 11 11 11 11 11 11 12 12 12 12 12 12 11 12 11 11 11 11 12 12
12 8 8 9 9 10 10 9 10 10 10 9 10 10 10 10 9 9 9 9 9 9 9 9 9 9 10 10 10 10 10 11 11 11 11 11 11 11 11 11 11 11 11 11 11 11 11 11 11
10 8 9 9 9 9 9 9 9 9 8 8 8 9 10 9 9 9 9 9 9 9 9 9 9 9 9 9 10 10 10 10 10 10 10 10 11 11 11 11 11 11 11 11 11 11 10 11 11
8 7 8 9 9 9 9 9 9 8 7 8 9 9 9 9 9 9 9 9 9 9 9 9 8 9 9 9 9 9 9 10 10 10 10 10 10 10 10 10 10 10 10 10 10 10 10 10 10
7 7 8 8 9 9 8 8 7 7 9 10 10 10 9 9 8 9 9 8 8 8 8 8 8 8 8 8 8 9 9 9 9 9 9 9 9 9 10 10 10 10 10 10 10 9 9 9 10
7 7 7 8 8 8 8 7 7 7 8 9 9 9 9 9 9 8 8 8 8 8 8 8 8 8 8 8 8 8 8 8 8 9 9 9 9 9 9 9 9 9 9 9 9 9 9 9 9
6 7 7 7 7 7 6 6 6 7 8 8 8 8 8 8 8 8 7 7 7 7 7 7 7 7 7 7 7 7 8 8 8 8 8 8 8 8 8 8 8 8 8 8 8 8 8 8 9
7 6 7 6 6 6 7 6 5 7 7 7 7 7 7 7 7 8 8 8 7 7 7 7 7 6 6 6 7 7 7 7 7 7 7 8 8 8 8 8 8 8 8 8 8 8 8 8 8
7 6 6 6 5 6 7 6 6 6 6 5 6 6 6 7 7 7 7 7 7 6 6 6 6 6 6 6 6 6 6 6 7 7 7 7 7 7 7 7 7 7 7 7 7 7 7 7 7
5 5 6 6 5 5 5 5 5 5 5 4 4 5 5 6 6 6 6 6 6 6 6 6 6 5 5 5 6 6 6 6 6 6 6 6 6 6 6 6 7 7 7 7 7 7 7 7 7
5 5 5 5 5 4 4 4 4 4 4 4 4 4 5 5 6 6 6 6 6 6 5 5 5 5 5 5 5 5 5 5 5 5 5 5 5 6 6 6 6 6 6 6 6 6 6 6 6
5 5 5 5 4 4 3 3 4 3 3 3 3 4 4 5 6 6 6 5 5 5 5 5 5 5 5 4 5 5 5 5 5 5 5 5 5 5 5 5 5 5 5 5 5 5 5 5 5
4 4 4 4 4 4 2 3 3 2 2 3 3 3 4 4 5 5 5 5 5 5 4 4 4 4 4 4 4 4 4 4 4 4 4 4 4 4 4 4 4 5 5 5 5 5 5 5 4
4 4 4 4 3 3 2 3 3 2 2 2 3 3 3 4 4 4 4 4 4 4 4 4 4 4 4 4 4 3 3 4 4 4 4 4 3 3 3 3 4 4 4 4 4 4 4 4 4
4 3 3 3 2 2 2 2 2 1 1 1 2 2 3 3 3 4 4 4 4 4 4 4 3 3 3 3 3 3 3 3 3 3 3 3 3 3 3 3 3 3 3 3 3 3 3 3 3
3 2 2 2 1 1 1 1 2 0 1 1 0 1 2 3 3 3 3 3 3 3 3 3 3 3 3 2 2 3 3 3 3 3 3 3 3 2 2 2 2 2 2 3 3 3 3 3 3
2 2 1 0 -0 1 0 0 2 0 1 1 -0 0 1 2 2 2 2 3 3 3 3 3 2 2 2 2 2 2 2 2 2 2 2 2 2 2 2 2 2 2 2 2 2 2 2 2 2
2 1 1 1 0 1 -0 -0 1 0 -1 -1 -1 -1 -0 0 1 1 2 2 2 2 2 2 2 2 2 2 2 1 1 1 1 2 2 2 2 1 1 1 1 1 1 1 1 2 2 1 1
1 1 2 2 1 1 -1 -0 0 -1 -2 -1 -1 -1 -1 -0 0 0 1 1 1 1 1 2 2 2 2 1 1 1 1 1 1 1 1 1 1 1 1 1 1 1 1 1 1 1 1 1 1
0 0 0 -0 -1 -1 -0 -1 -1 -1 -2 -2 -2 -2 -2 -1 -1 -1 -0 -0 0 0 1 1 1 1 1 1 1 1 1 0 0 1 1 1 1 0 0 0 0 0 0 0 -0 -0 0 0 0
-0 -1 -1 -0 0 0 -0 -1 -0 -1 -1 -3 -3 -3 -2 -2 -2 -1 -1 -1 -1 -0 -0 -0 0 0 0 0 0 0 0 0 -0 -0 0 0 0 -0 -0 -0 -0 -0 -1 -1 -1 -1 -1 -1 -1
-1 -1 -1 -2 -1 -0 -0 0 -1 -2 -2 -3 -4 -3 -3 -3 -3 -2 -2 -2 -1 -1 -1 -1 -1 -0 -0 -0 -0 -0 -0 -0 -0 -0 -0 -1 -1 -1 -1 -1 -1 -1 -1 -1 -1 -1 -1 -1 -1
-2 -2 -2 -1 -2 -3 -2 -1 -2 -3 -4 -4 -4 -4 -4 -3 -3 -3 -3 -2 -2 -2 -2 -2 -1 -1 -1 -1 -1 -1 -1 -1 -1 -1 -1 -1 -1 -1 -1 -1 -1 -2 -1 -2 -2 -2 -2 -2 -2
Wind_Speed
5 3 3 4 5 4 4 5 3 2 2 1 2 3 5 5 4 3 1 1 2 3 3 3 5 7 8 8 8 9 10 10 11 12 12 12 12 13 13 13 13 13 13 13 14 14 15 15 15
1 2 5 5 5 2 5 5 5 4 3 3 3 3 4 2 1 2 0 2 2 4 5 4 6 8 8 9 9 9 10 10 11 12 12 12 12 12 12 12 12 13 13 13 14 15 15 15 15
1 4 5 5 4 6 6 4 5 1 2 2 2 2 2 1 1 2 1 1 4 5 6 5 8 8 9 9 9 9 9 10 10 11 11 11 11 12 12 12 12 12 12 13 13 14 14 14 14
3 5 5 4 5 5 4 2 3 3 1 2 3 2 0 2 1 1 1 4 5 5 6 6 8 8 8 9 9 9 9 9 10 10 11 11 11 11 12 12 11 12 12 12 12 13 13 13 13
4 5 3 1 5 4 3 2 4 4 3 2 4 3 1 2 2 3 4 5 6 5 6 6 8 8 8 9 9 9 9 10 10 10 10 11 11 11 11 11 12 11 11 11 11 12 12 13 13
5 5 4 5 6 4 3 2 4 3 2 2 4 3 2 1 2 3 4 5 6 6 7 7 7 8 8 8 9 9 9 9 10 9 9 10 10 10 10 10 11 11 11 10 11 11 11 12 12
5 5 5 5 4 4 3 3 4 4 3 4 4 4 1 1 1 4 5 5 6 7 7 8 8 8 8 8 8 9 9 9 9 9 9 9 9 10 10 9 9 10 10 10 10 10 11 11 11
5 5 3 4 5 5 2 3 2 4 4 1 5 6 4 3 3 5 5 5 5 6 6 7 8 9 8 8 8 8 9 9 9 9 10 10 9 9 9 9 9 9 9 9 10 11 11 11 11
4 3 5 6 7 5 2 3 0 1 4 2 1 1 1 7 7 7 5 3 3 4 4 6 7 7 8 8 8 8 9 10 10 10 10 10 10 10 9 9 9 9 9 9 10 11 12 12 11
4 5 8 4 5 3 3 3 4 3 2 1 0 2 5 8 9 8 6 6 4 3 2 3 5 6 7 7 8 8 8 9 10 10 10 10 10 9 9 9 10 9 9 10 11 11 12 11 10
4 6 4 2 1 2 2 2 2 5 4 6 6 5 7 8 8 8 7 6 5 4 3 3 4 5 6 6 7 7 7 8 9 9 10 9 9 9 9 9 9 9 9 9 9 10 10 10 9
4 2 2 1 1 1 2 2 2 4 5 2 5 8 9 10 10 10 8 6 4 4 3 3 4 5 5 6 6 6 6 6 7 7 8 8 7 7 7 8 8 8 8 8 9 8 9 9 9
3 2 1 0 1 1 1 2 3 4 2 3 6 8 9 10 9 7 5 4 4 4 4 3 3 4 5 5 5 5 5 5 6 6 7 7 6 5 6 6 7 7 8 7 7 7 7 7 8
2 1 1 1 0 0 2 3 2 4 2 3 5 6 8 9 8 5 5 6 6 6 5 4 4 4 5 4 4 4 4 5 5 6 6 6 6 5 4 5 5 6 6 6 6 6 6 5 6
2 1 2 1 1 0 0 5 6 4 3 3 4 5 5 6 6 7 8 7 8 7 6 5 5 4 5 4 4 4 4 5 4 5 5 6 5 5 4 4 4 4 5 6 6 6 6 5 5
2 1 2 2 2 1 3 8 4 2 4 4 4 4 4 5 6 6 6 6 6 6 6 6 5 5 4 4 4 4 4 4 4 4 4 5 5 5 4 3 3 4 5 5 4 4 3 3 3
2 2 4 3 1 1 4 7 4 1 3 5 4 4 5 5 5 5 4 5 6 7 7 7 5 5 4 4 4 4 3 3 3 4 3 3 4 4 4 3 3 4 4 4 3 3 2 2 2
4 4 4 5 2 1 4 8 7 3 4 6 5 5 5 6 7 5 4 4 5 5 6 7 6 5 5 3 3 2 2 2 2 2 3 3 3 3 3 3 3 3 3 2 2 2 2 2 2
3 4 5 4 1 2 6 10 10 6 5 7 7 6 6 7 5 3 3 3 3 4 5 6 6 6 5 4 3 3 2 2 1 1 2 3 3 3 3 2 2 2 2 2 2 2 2 2 2
2 4 5 3 1 2 5 10 9 6 6 7 7 7 7 6 3 3 3 3 4 5 5 6 6 7 6 5 4 2 2 2 2 2 2 3 3 4 3 2 2 1 1 2 2 2 2 1 1
4 5 4 4 3 2 4 8 5 4 3 4 5 5 5 6 6 4 4 5 5 6 6 6 6 6 6 5 3 2 2 1 1 2 2 2 3 4 3 3 2 2 2 3 3 3 3 2 0
4 2 3 3 2 4 0 6 6 4 5 5 5 4 5 5 4 4 4 4 5 6 5 5 6 6 5 5 5 6 4 3 4 3 3 3 3 4 4 4 3 3 2 2 4 4 2 3 2
3 0 1 1 2 3 1 4 8 2 5 6 5 4 4 4 3 4 4 5 4 4 4 4 4 5 5 6 6 6 5 4 2 2 3 3 3 3 4 5 4 4 3 3 3 4 3 3 3
3 3 3 3 3 4 5 5 7 3 4 4 4 4 4 4 3 2 2 2 2 2 2 3 3 5 5 5 5 6 6 4 4 4 4 3 3 3 4 5 5 4 4 4 4 4 5 4 4
3 4 3 3 2 6 2 4 8 4 3 3 3 4 4 4 4 3 3 2 2 2 2 3 4 4 5 6 6 6 6 6 6 6 5 5 3 4 5 5 5 5 5 5 5 4 5 5 5
3 5 5 5 5 5 2 7 6 2 3 2 1 2 4 4 4 4 3 3 3 2 2 3 4 4 4 5 5 5 5 5 5 6 5 6 5 5 5 6 6 6 6 6 5 4 4 5 5
4 4 3 3 1 3 6 6 7 2 4 4 3 4 4 5 5 4 4 3 3 2 2 3 3 3 4 5 5 5 5 5 6 5 5 5 4 4 6 6 6 6 7 7 6 4 5 5 6
2 5 4 3 3 5 6 5 4 5 5 4 3 4 5 5 5 5 5 5 4 3 2 1 2 3 3 4 4 4 5 5 5 5 6 6 5 5 5 6 6 6 7 7 6 5 5 5 5
3 3 3 3 3 4 5 6 3 3 3 3 3 4 5 5 6 6 5 5 5 5 3 2 2 2 3 3 4 4 4 4 4 5 6 6 6 6 6 6 6 6 7 6 6 6 6 7 6
3 4 5 4 5 4 4 6 2 2 3 2 3 4 5 5 6 5 5 5 5 5 5 4 3 3 3 3 3 4 4 4 5 6 6 6 6 7 7 7 7 7 7 7 7 7 7 8 8
Wind_Direction
352 29 73 60 62 60 232 239 211 198 204 166 109 130 147 151 160 176 7 11 47 93 111 112 111 104 97 96 94 94 93 90 88 88 87 87 86 85 84 84 84 81 80 80 82 81 78 78 78
6 64 59 65 108 196 252 232 212 215 175 115 72 88 108 141 58 96 341 330 67 91 92 97 108 106 100 96 97 100 99 95 92 89 88 87 86 85 84 84 85 82 80 81 82 81 79 79 79
85 57 86 88 147 194 222 215 204 172 121 135 103 59 130 164 150 174 287 73 77 74 83 89 102 104 103 98 94 98 100 97 95 92 89 88 86 85 84 84 83 82 82 82 82 82 80 80 81
86 55 61 96 211 224 216 219 174 144 96 101 132 111 60 15 198 203 93 98 89 69 77 91 99 97 99 102 98 95 96 97 95 93 90 89 87 84 83 83 83 82 82 83 84 84 83 83 83
61 84 91 218 239 243 240 230 166 164 178 157 148 153 182 6 43 96 107 100 99 74 68 86 101 100 95 92 94 97 94 93 94 93 91 87 85 85 83 81 80 81 82 84 86 86 85 84 85
65 80 130 219 239 252 252 205 152 169 176 148 152 153 185 39 92 113 110 101 91 82 68 78 99 98 96 92 88 88 94 95 93 92 92 89 85 83 82 82 81 80 80 83 85 85 85 85 84
117 120 183 202 226 250 232 161 162 173 185 202 172 151 206 220 163 122 106 94 82 79 72 66 75 84 88 91 91 87 85 89 90 88 88 88 85 82 80 80 81 80 80 80 82 83 85 84 82
128 125 174 202 208 240 206 159 185 168 191 149 146 162 209 202 149 113 98 90 84 74 71 68 69 74 75 80 87 85 79 78 81 81 81 81 79 77 76 73 78 80 81 80 80 79 83 82 79
98 107 210 208 196 223 174 166 160 105 118 104 115 176 167 134 133 117 101 90 93 87 68 70 68 71 74 76 77 77 76 74 73 73 74 76 71 69 67 70 76 80 81 80 80 78 77 76 75
111 184 221 208 191 190 180 182 172 134 145 182 141 63 110 133 146 148 151 158 157 151 118 76 79 75 77 77 75 73 72 72 70 70 71 73 74 71 70 70 69 74 78 79 76 74 72 67 63
157 195 215 227 193 162 173 200 173 160 215 214 200 173 146 152 162 171 175 174 175 168 145 107 94 88 86 80 79 76 75 73 71 70 71 76 76 71 67 65 61 63 66 66 67 68 63 62 60
166 230 207 240 139 146 186 176 191 206 222 210 176 153 157 169 182 187 186 183 171 162 161 133 106 99 94 92 87 83 78 76 72 69 74 77 72 65 62 61 59 62 64 63 63 64 62 61 61
191 227 179 161 95 98 124 218 225 248 264 84 119 140 165 180 192 197 189 179 174 177 173 162 126 119 109 100 93 90 84 86 86 82 77 79 76 71 67 65 65 65 69 69 65 64 63 59 55
193 191 274 316 256 215 205 250 222 252 148 118 138 169 186 190 192 189 191 193 192 189 184 170 150 135 122 113 108 102 100 99 96 90 84 84 81 78 78 72 67 65 71 74 74 71 69 63 59
112 43 323 280 178 214 119 280 230 235 142 162 182 191 202 210 202 203 204 202 200 194 184 176 166 145 137 131 123 116 114 111 104 98 95 90 86 81 81 81 70 66 77 78 75 70 69 65 55
85 69 280 283 171 203 163 258 256 203 170 211 216 213 217 225 221 220 213 207 198 188 184 183 174 160 155 142 131 123 123 119 114 111 107 102 97 90 82 80 74 77 86 81 78 71 68 60 47
55 225 247 280 196 143 190 251 267 208 187 233 234 226 227 238 241 234 219 204 196 192 187 185 175 169 167 149 133 126 128 124 125 127 121 117 109 104 95 82 83 94 86 77 82 71 73 72 51
218 221 239 248 266 184 230 255 271 249 222 242 245 238 236 241 243 231 216 197 191 190 188 187 178 172 162 145 124 111 111 111 124 139 147 140 134 126 112 92 80 104 98 85 83 86 68 81 70
169 192 237 255 276 237 246 264 270 262 246 252 251 244 244 248 254 226 208 190 171 180 184 187 182 177 164 165 170 170 186 181 171 174 171 172 160 149 135 108 90 101 134 145 122 104 93 63 45
197 232 250 275 298 251 275 277 267 248 238 238 240 241 243 253 261 229 211 195 193 194 196 189 190 185 182 181 178 173 170 183 190 187 176 188 176 164 170 153 159 124 144 150 146 122 124 78 54
228 220 234 258 321 307 312 294 265 264 255 258 252 251 250 237 236 227 213 210 205 205 205 204 193 187 187 174 152 128 110 102 150 189 191 193 195 186 187 183 173 168 163 191 186 178 156 162 203
240 226 226 251 290 280 285 287 276 264 283 268 267 269 267 262 240 226 219 219 215 215 209 206 196 185 182 173 174 174 184 199 207 201 200 204 202 206 202 193 189 189 188 207 202 184 181 166 184
199 53 225 246 210 288 252 240 283 300 277 271 277 280 284 279 250 235 227 226 227 217 207 203 198 188 182 181 185 190 201 206 200 192 198 205 211 216 217 205 201 204 206 211 217 194 186 186 188
128 61 38 51 83 272 224 202 280 246 252 290 313 322 321 322 308 286 265 242 246 226 208 203 201 198 188 187 188 195 201 197 194 204 210 213 218 223 228 220 211 212 215 217 220 209 196 197 196
94 90 14 339 312 251 201 218 252 260 272 276 290 311 330 339 346 341 336 318 279 240 217 207 204 213 198 194 199 203 205 200 204 208 212 214 220 226 224 229 224 221 223 223 220 214 211 200 199
184 154 175 221 243 281 254 237 254 282 319 318 304 324 346 350 352 346 331 316 296 262 234 215 212 224 207 201 210 210 209 209 216 214 214 216 221 225 222 226 230 229 224 222 215 218 221 211 208
151 198 171 146 237 276 263 276 300 328 358 0 349 353 350 351 354 351 348 341 323 296 259 231 223 233 225 213 215 216 215 218 222 221 219 224 228 231 221 222 224 228 224 219 212 220 220 218 217
146 147 113 154 214 256 278 271 273 303 308 323 331 333 333 344 349 348 348 345 339 331 317 289 236 235 243 224 221 233 229 228 226 220 222 224 226 229 222 223 221 224 227 220 212 221 220 217 224
127 133 155 167 189 202 265 268 248 270 294 285 296 322 331 336 338 342 344 347 347 349 342 328 293 266 259 237 231 234 236 233 229 228 228 228 227 222 223 222 221 221 223 219 214 217 218 217 224
172 183 166 184 233 211 230 266 327 322 328 320 314 326 330 332 333 335 338 344 349 347 342 331 314 292 273 249 239 243 244 237 233 237 237 231 228 226 223 220 221 223 222 218 216 217 218 218 221
Height
1490 1491 1494 1497 1502 1514 1515 1509 1505 1504 1504 1504 1504 1505 1506 1509 1513 1517 1513 1511 1513 1516 1519 1521 1523 1525 1526 1527 1528 1529 1530 1531 1532 1533 1534 1535 1535 1536 1536 1537 1538 1538 1539 1539 1540 1541 1542 1542 1543
1490 1492 1496 1497 1508 1518 1514 1506 1504 1502 1502 1502 1503 1504 1505 1507 1508 1509 1509 1511 1513 1516 1518 1520 1522 1524 1526 1527 1528 1529 1530 1531 1533 1533 1534 1535 1536 1536 1537 1538 1538 1539 1540 1540 1541 1542 1542 1543 1544
1490 1492 1495 1500 1510 1512 1506 1501 1501 1501 1501 1502 1503 1504 1505 1506 1507 1508 1509 1511 1513 1515 1518 1520 1522 1524 1526 1527 1528 1529 1530 1532 1533 1533 1534 1535 1536 1537 1537 1538 1539 1539 1540 1541 1542 1543 1543 1544 1545
1490 1493 1496 1504 1507 1505 1501 1498 1499 1500 1501 1502 1503 1505 1505 1507 1507 1508 1509 1511 1513 1515 1517 1519 1521 1523 1525 1527 1528 1529 1530 1531 1532 1533 1534 1535 1536 1537 1537 1538 1539 1540 1541 1542 1543 1543 1544 1545 1546
1490 1492 1500 1508 1505 1501 1499 1497 1498 1499 1500 1501 1502 1504 1505 1506 1506 1507 1509 1510 1512 1514 1517 1519 1521 1523 1524 1526 1528 1529 1530 1531 1532 1533 1534 1535 1536 1537 1537 1538 1539 1540 1541 1542 1543 1544 1544 1545 1546
1490 1492 1505 1507 1502 1499 1497 1496 1497 1499 1500 1501 1502 1503 1503 1505 1506 1507 1508 1510 1512 1514 1516 1518 1520 1522 1524 1525 1527 1528 1530 1531 1532 1533 1534 1534 1535 1536 1537 1538 1539 1540 1541 1542 1543 1544 1545 1545 1546
1489 1496 1501 1501 1500 1498 1496 1495 1496 1497 1498 1499 1500 1502 1502 1503 1505 1506 1508 1510 1512 1514 1516 1517 1519 1521 1523 1524 1526 1527 1529 1530 1531 1532 1533 1534 1535 1536 1537 1538 1539 1539 1540 1541 1542 1543 1544 1545 1546
1487 1494 1498 1500 1499 1496 1493 1494 1494 1495 1496 1498 1499 1500 1500 1502 1503 1506 1508 1510 1511 1513 1515 1517 1518 1520 1522 1523 1525 1526 1528 1529 1530 1531 1532 1533 1534 1535 1536 1537 1538 1539 1540 1541 1542 1543 1544 1545 1546
1487 1496 1498 1496 1496 1493 1492 1493 1494 1494 1495 1496 1497 1498 1499 1501 1502 1504 1506 1508 1510 1512 1514 1516 1517 1519 1520 1522 1524 1525 1527 1528 1529 1530 1532 1533 1534 1535 1536 1536 1537 1538 1539 1540 1541 1542 1543 1544 1545
1486 1495 1491 1490 1489 1489 1490 1491 1492 1494 1495 1495 1496 1497 1498 1499 1500 1502 1503 1505 1507 1509 1512 1514 1516 1517 1519 1521 1522 1524 1525 1527 1528 1529 1531 1532 1533 1534 1535 1536 1537 1537 1538 1539 1540 1541 1543 1544 1545
1485 1489 1487 1487 1487 1488 1489 1491 1492 1492 1494 1492 1493 1494 1495 1497 1499 1500 1502 1504 1506 1508 1510 1512 1514 1516 1517 1519 1521 1522 1524 1525 1527 1528 1530 1531 1532 1533 1534 1535 1536 1537 1538 1538 1540 1541 1542 1543 1544
1485 1485 1485 1486 1487 1488 1489 1489 1491 1490 1490 1491 1491 1492 1494 1495 1497 1498 1500 1502 1504 1506 1508 1510 1512 1514 1516 1517 1519 1521 1522 1523 1525 1527 1528 1529 1530 1531 1532 1533 1534 1535 1536 1537 1538 1540 1541 1542 1543
1484 1484 1485 1486 1486 1487 1488 1489 1489 1489 1489 1490 1490 1491 1492 1494 1495 1497 1499 1501 1503 1505 1506 1508 1510 1512 1514 1516 1517 1519 1520 1522 1523 1525 1526 1528 1529 1530 1531 1532 1533 1534 1535 1536 1537 1538 1540 1541 1542
1483 1484 1484 1485 1485 1486 1487 1487 1488 1486 1488 1488 1488 1489 1491 1492 1493 1495 1496 1498 1500 1502 1504 1506 1508 1510 1512 1514 1515 1517 1519 1520 1522 1523 1525 1526 1527 1528 1530 1531 1531 1532 1533 1534 1535 1537 1538 1539 1540
1483 1484 1485 1484 1485 1486 1487 1487 1486 1485 1486 1486 1487 1488 1489 1490 1491 1492 1493 1495 1497 1499 1502 1504 1506 1508 1510 1512 1514 1515 1517 1518 1520 1521 1522 1524 1525 1526 1527 1529 1529 1530 1531 1533 1534 1535 1536 1537 1539
1483 1486 1487 1485 1485 1486 1490 1486 1483 1483 1484 1484 1485 1485 1486 1487 1488 1489 1491 1492 1494 1497 1499 1501 1503 1505 1507 1509 1511 1513 1515 1516 1517 1519 1520 1522 1523 1524 1525 1526 1527 1528 1529 1531 1532 1533 1534 1535 1536
1487 1490 1488 1486 1485 1486 1487 1485 1482 1481 1482 1482 1482 1483 1483 1484 1485 1486 1488 1489 1491 1493 1496 1498 1500 1502 1505 1507 1509 1511 1512 1514 1515 1516 1518 1519 1520 1521 1522 1524 1525 1526 1527 1528 1529 1531 1532 1533 1534
1488 1490 1488 1487 1485 1486 1487 1484 1481 1480 1481 1480 1480 1480 1480 1480 1481 1483 1485 1486 1488 1490 1492 1494 1497 1499 1502 1504 1506 1508 1509 1511 1512 1513 1514 1516 1517 1519 1520 1521 1522 1523 1524 1526 1527 1528 1529 1530 1531
1484 1487 1488 1486 1485 1487 1486 1483 1479 1478 1479 1477 1477 1477 1477 1477 1479 1480 1481 1483 1485 1487 1489 1491 1493 1495 1498 1500 1502 1504 1505 1507 1509 1510 1512 1513 1514 1515 1517 1518 1519 1520 1521 1523 1524 1525 1526 1527 1529
1484 1487 1487 1486 1486 1486 1486 1481 1476 1475 1474 1473 1473 1473 1473 1474 1475 1476 1478 1479 1481 1482 1485 1487 1489 1491 1494 1496 1499 1501 1502 1504 1506 1507 1509 1510 1511 1512 1513 1515 1516 1517 1519 1520 1521 1522 1523 1524 1526
1484 1486 1487 1487 1487 1486 1487 1478 1475 1471 1470 1470 1470 1470 1470 1471 1471 1473 1474 1475 1477 1479 1481 1483 1485 1487 1490 1493 1495 1497 1499 1500 1502 1503 1504 1506 1507 1509 1510 1511 1512 1513 1515 1516 1517 1519 1520 1521 1523
1483 1484 1485 1486 1490 1492 1490 1487 1473 1471 1469 1467 1466 1467 1467 1468 1468 1469 1470 1472 1473 1475 1477 1479 1481 1483 1486 1488 1490 1492 1493 1494 1496 1498 1500 1502 1504 1505 1506 1507 1509 1510 1511 1512 1513 1515 1516 1518 1519
1483 1484 1485 1487 1491 1495 1494 1493 1474 1472 1469 1465 1465 1464 1464 1465 1465 1466 1467 1469 1470 1472 1473 1475 1478 1480 1482 1484 1486 1487 1489 1491 1493 1494 1496 1497 1499 1500 1502 1503 1504 1506 1507 1508 1509 1511 1512 1513 1515
1483 1486 1488 1492 1495 1496 1492 1493 1476 1473 1468 1465 1464 1464 1463 1463 1463 1464 1465 1466 1467 1468 1470 1471 1473 1476 1478 1479 1481 1483 1485 1486 1488 1489 1491 1492 1494 1495 1497 1498 1500 1501 1502 1504 1505 1506 1507 1509 1511
1484 1489 1495 1495 1499 1492 1492 1490 1476 1468 1467 1466 1465 1463 1462 1462 1462 1462 1462 1463 1464 1465 1466 1468 1469 1471 1473 1475 1477 1479 1480 1482 1483 1485 1486 1487 1488 1490 1491 1493 1494 1496 1497 1499 1500 1501 1502 1504 1505
1485 1486 1492 1493 1493 1491 1490 1486 1471 1467 1466 1464 1464 1463 1462 1461 1461 1461 1461 1461 1461 1462 1463 1464 1465 1467 1469 1471 1472 1474 1476 1477 1478 1480 1481 1482 1483 1485 1486 1488 1488 1490 1492 1493 1494 1495 1496 1498 1499
1485 1488 1488 1494 1497 1497 1487 1480 1470 1464 1464 1464 1463 1462 1461 1461 1460 1460 1460 1460 1459 1459 1460 1461 1462 1463 1465 1466 1468 1469 1471 1472 1473 1474 1476 1477 1478 1479 1481 1482 1483 1484 1486 1487 1488 1489 1490 1492 1494
1483 1487 1493 1493 1492 1491 1484 1483 1474 1465 1465 1465 1464 1463 1462 1461 1460 1459 1458 1458 1458 1457 1458 1458 1459 1460 1461 1462 1463 1464 1466 1467 1468 1469 1470 1471 1472 1474 1474 1476 1477 1478 1479 1480 1481 1482 1484 1485 1487
1486 1489 1489 1492 1492 1491 1487 1477 1468 1466 1464 1464 1464 1463 1462 1461 1460 1458 1457 1457 1456 1455 1455 1455 1456 1456 1457 1458 1459 1460 1461 1462 1462 1463 1464 1465 1467 1467 1468 1469 1470 1472 1473 1474 1475 1476 1477 1479 1480
1483 1485 1487 1489 1491 1494 1489 1478 1466 1466 1465 1464 1464 1463 1462 1461 1459 1458 1457 1455 1454 1453 1453 1452 1452 1453 1453 1453 1454 1454 1455 1456 1456 1457 1458 1459 1460 1461 1462 1463 1464 1465 1467 1468 1468 1469 1471 1472 1474